Find TurkmenAlem52E/MonacoSAT

NORAD ID: 40617 Int'l Des: 2015-023 Owner: SSIM/TMTEL Country: MC operational
HEOCIRCULARGSOGEO

リアルタイム位置

3D地球を読み込み中...

TurkmenAlem52E/MonacoSATについて

説明を読み込み中...

次回通過

Passes for default location (London). Set your location on the main map for personalized predictions.

高度履歴

Loading altitude history...

軌道要素

1 40617U 15023A 26105.59520500 .00000000 00000-0 00000-0 0 9999
2 40617 0.0126 217.0989 0002831 170.8078 82.1516 1.00272682 40229
Epoch: Apr 15, 2026 • Age: 10 hours

現在のステータス

高度 35792.4 km
速度 3.07 km/s
衛星直下点 0.03°N, 52°E
打ち上げ日 Apr 27, 2015
運用期間 10.9 years
タイプ other

技術仕様

分類 Payload
質量 4700.00 kg
乾燥質量 1823.00 kg
総質量 4700.00 kg
長さ 4.50 m
直径 2.00 m
スパン 30.00 m
形状 Box+2 pan
製造者 THALES
バスタイプ Spacebus 4000C2
フェーズステータス In Orbit
所有者/国 SSIM/TMTEL/MC

Most Searched